Time,TemperatureF,DewpointF,PressureIn,WindDirection,WindDirectionDegrees,WindSpeedMPH,WindSpeedGustMPH,Humidity,HourlyPrecipIn,Conditions,Clouds,dailyrainin,SoftwareType,DateUTC
2013-09-18 00:03:00,62.1,26.7,30.12,NNE,29,0.0,1.0,26,0.00,CLR,CLR,0.00,WeatherDisplay:10.37,2013-09-18 04:03:00,
2013-09-18 00:18:00,61.9,27.5,30.12,NE,45,0.0,0.0,27,0.00,CLR,CLR,0.00,WeatherDisplay:10.37,2013-09-18 04:18:00,
2013-09-18 00:33:00,61.7,27.3,30.12,NE,45,0.0,0.0,27,0.00,CLR,CLR,0.00,WeatherDisplay:10.37,2013-09-18 04:33:00,
2013-09-18 00:48:00,61.7,28.2,30.12,NE,45,0.0,0.0,28,0.00,CLR,CLR,0.00,WeatherDisplay:10.37,2013-09-18 04:48:00,
2013-09-18 01:03:00,62.1,29.4,30.12,NE,45,0.0,0.0,29,0.00,CLR,CLR,0.00,WeatherDisplay:10.37,2013-09-18 05:03:00,
2013-09-18 01:18:00,62.6,29.9,30.15,NE,45,0.0,0.0,29,0.00,CLR,CLR,0.00,WeatherDisplay:10.37,2013-09-18 05:18:00,
2013-09-18 01:33:00,63.0,31.0,30.12,NE,45,0.0,0.0,30,0.00,CLR,CLR,0.00,WeatherDisplay:10.37,2013-09-18 05:33:00,
2013-09-18 01:48:00,63.0,31.0,30.15,NE,45,0.0,0.0,30,0.00,CLR,CLR,0.00,WeatherDisplay:10.37,2013-09-18 05:48:00,
2013-09-18 02:03:00,63.3,32.1,30.15,SE,137,1.0,2.0,31,0.00,CLR,CLR,0.00,WeatherDisplay:10.37,2013-09-18 06:03:00,
2013-09-18 02:18:00,63.7,32.5,30.15,South,180,1.0,2.0,31,0.00,CLR,CLR,0.00,WeatherDisplay:10.37,2013-09-18 06:18:00,
2013-09-18 02:33:00,63.9,34.2,30.15,SSW,195,2.0,3.0,33,0.00,CLR,CLR,0.00,WeatherDisplay:10.37,2013-09-18 06:33:00,
2013-09-18 02:48:00,64.0,35.1,30.15,SSW,211,0.0,4.0,34,0.00,CLR,CLR,0.00,WeatherDisplay:10.37,2013-09-18 06:48:00,
2013-09-18 02:49:00,64.2,60.9,30.15,South,190,1.0,3.0,89,0.00,SCT,SCT,0.00,WeatherDisplay:10.37,2013-09-18 06:49:00,
2013-09-18 02:50:00,64.2,60.9,30.15,South,190,1.0,0.0,89,0.00,SCT,SCT,0.00,WeatherDisplay:10.37,2013-09-18 06:50:00,
2013-09-18 02:51:00,64.2,60.9,30.15,South,190,1.0,0.0,89,0.00,SCT,SCT,0.00,WeatherDisplay:10.37,2013-09-18 06:51:00,
2013-09-18 02:52:00,64.2,60.9,30.15,South,190,1.0,0.0,89,0.00,SCT,SCT,0.00,WeatherDisplay:10.37,2013-09-18 06:52:00,
2013-09-18 02:53:00,64.2,60.9,30.15,South,190,1.0,0.0,89,0.00,SCT,SCT,0.00,WeatherDisplay:10.37,2013-09-18 06:53:00,
2013-09-18 02:54:00,64.2,60.9,30.15,South,190,1.0,0.0,89,0.00,SCT,SCT,0.00,WeatherDisplay:10.37,2013-09-18 06:54:00,
2013-09-18 02:55:00,64.2,60.9,30.15,South,190,1.0,0.0,89,0.00,SCT,SCT,0.00,WeatherDisplay:10.37,2013-09-18 06:55:00,
2013-09-18 02:56:00,64.2,60.9,30.15,South,190,1.0,0.0,89,0.00,SCT,SCT,0.00,WeatherDisplay:10.37,2013-09-18 06:56:00,
2013-09-18 02:57:00,64.2,60.9,30.15,South,190,1.0,0.0,89,0.00,SCT,SCT,0.00,WeatherDisplay:10.37,2013-09-18 06:57:00,
2013-09-18 02:58:00,64.2,60.9,30.15,South,190,1.0,0.0,89,0.00,SCT,SCT,0.00,WeatherDisplay:10.37,2013-09-18 06:58:00,
2013-09-18 02:59:00,64.2,60.9,30.15,South,190,1.0,0.0,89,0.00,SCT,SCT,0.00,WeatherDisplay:10.37,2013-09-18 06:59:00,
2013-09-18 03:00:00,64.2,60.9,30.15,South,190,1.0,0.0,89,0.00,SCT,SCT,0.00,WeatherDisplay:10.37,2013-09-18 07:00:00,
2013-09-18 03:01:00,64.2,60.9,30.15,South,190,1.0,0.0,89,0.00,SCT,SCT,0.00,WeatherDisplay:10.37,2013-09-18 07:01:00,
2013-09-18 03:02:00,64.2,60.9,30.15,South,190,1.0,0.0,89,0.00,SCT,SCT,0.00,WeatherDisplay:10.37,2013-09-18 07:02:00,
2013-09-18 03:03:00,64.2,60.9,30.15,South,190,1.0,0.0,89,0.00,SCT,SCT,0.00,WeatherDisplay:10.37,2013-09-18 07:03:00,
2013-09-18 08:01:00,64.2,60.9,30.15,South,180,3.8,3.8,89,0.00,CLR,,0.00,WeatherDisplay:10.37,2013-09-18 12:01:00,
2013-09-18 08:02:00,64.2,60.9,30.15,South,180,3.5,3.5,89,0.00,SCT,,0.00,WeatherDisplay:10.37,2013-09-18 12:02:00,
2013-09-18 08:07:00,64.4,61.1,30.15,South,180,2.3,2.3,89,0.00,SCT,,0.00,WeatherDisplay:10.37,2013-09-18 12:07:00,
2013-09-18 08:12:00,64.6,61.3,30.15,SW,225,2.3,2.3,89,0.00,SCT,,0.00,WeatherDisplay:10.37,2013-09-18 12:12:00,
2013-09-18 08:17:00,64.8,61.4,30.15,SSW,202,2.3,2.3,89,0.00,BKN,,0.00,WeatherDisplay:10.37,2013-09-18 12:17:00,
2013-09-18 08:22:00,65.1,61.8,30.15,SSW,202,2.3,2.3,89,0.00,BKN,,0.00,WeatherDisplay:10.37,2013-09-18 12:22:00,
2013-09-18 08:27:00,65.1,62.1,30.15,SW,225,2.3,2.3,90,0.00,BKN,,0.00,WeatherDisplay:10.37,2013-09-18 12:27:00,
2013-09-18 08:32:00,65.3,62.3,30.18,SSW,202,2.3,2.3,90,0.00,BKN,,0.00,WeatherDisplay:10.37,2013-09-18 12:32:00,
2013-09-18 08:37:00,65.5,62.2,30.18,SSW,202,2.3,2.3,89,0.00,BKN,,0.00,WeatherDisplay:10.37,2013-09-18 12:37:00,
2013-09-18 08:42:00,65.7,62.6,30.18,SSW,202,2.0,2.0,90,0.00,BKN,,0.00,WeatherDisplay:10.37,2013-09-18 12:42:00,
2013-09-18 08:47:00,65.7,62.6,30.18,SW,225,1.4,1.4,90,0.00,SCT,,0.00,WeatherDisplay:10.37,2013-09-18 12:47:00,
2013-09-18 08:52:00,65.8,62.8,30.18,SW,225,1.6,1.6,90,0.00,SCT,,0.00,WeatherDisplay:10.37,2013-09-18 12:52:00,
2013-09-18 08:57:00,66.0,62.7,30.18,SW,225,2.2,2.2,89,0.00,SCT,,0.00,WeatherDisplay:10.37,2013-09-18 12:57:00,
2013-09-18 09:02:00,66.4,63.0,30.18,SSW,202,2.3,2.3,89,0.00,BKN,,0.00,WeatherDisplay:10.37,2013-09-18 13:02:00,
2013-09-18 09:07:00,66.6,62.9,30.18,South,180,2.3,2.3,88,0.00,BKN,,0.00,WeatherDisplay:10.37,2013-09-18 13:07:00,
2013-09-18 09:12:00,66.7,63.1,30.18,South,180,2.3,2.3,88,0.00,BKN,,0.00,WeatherDisplay:10.37,2013-09-18 13:12:00,
2013-09-18 09:17:00,67.1,63.4,30.18,SSW,202,4.6,4.6,88,0.00,BKN,,0.00,WeatherDisplay:10.37,2013-09-18 13:17:00,
2013-09-18 09:22:00,67.1,63.4,30.18,SW,225,2.3,2.3,88,0.00,BKN,,0.00,WeatherDisplay:10.37,2013-09-18 13:22:00,
2013-09-18 09:27:00,67.3,63.6,30.18,SW,225,2.3,2.6,88,0.00,BKN,,0.00,WeatherDisplay:10.37,2013-09-18 13:27:00,
2013-09-18 09:32:00,67.3,63.3,30.18,South,180,2.3,2.4,87,0.00,SCT,,0.00,WeatherDisplay:10.37,2013-09-18 13:32:00,
2013-09-18 09:37:00,67.5,63.1,30.18,SSW,202,2.6,2.6,86,0.00,SCT,,0.00,WeatherDisplay:10.37,2013-09-18 13:37:00,
2013-09-18 09:42:00,67.6,63.0,30.18,SW,225,2.3,2.3,85,0.00,SCT,,0.00,WeatherDisplay:10.37,2013-09-18 13:42:00,
2013-09-18 09:47:00,67.5,62.5,30.20,SW,220,2.0,0.0,84,0.00,SCT,SCT,0.00,WeatherDisplay:10.37,2013-09-18 13:47:00,
2013-09-18 09:52:00,67.6,62.6,30.21,SSW,202,2.3,2.3,84,0.00,SCT,,0.00,WeatherDisplay:10.37,2013-09-18 13:52:00,
2013-09-18 09:57:00,67.6,62.3,30.21,South,180,2.4,2.4,83,0.00,SCT,,0.00,WeatherDisplay:10.37,2013-09-18 13:57:00,
2013-09-18 10:03:00,67.6,62.3,30.18,South,180,2.3,2.3,83,0.00,SCT,,0.00,WeatherDisplay:10.37,2013-09-18 14:03:00,
2013-09-18 10:08:00,67.6,61.9,30.18,South,180,2.3,2.3,82,0.00,SCT,,0.00,WeatherDisplay:10.37,2013-09-18 14:08:00,
2013-09-18 10:13:00,67.6,61.9,30.18,SSW,202,2.3,2.3,82,0.00,SCT,,0.00,WeatherDisplay:10.37,2013-09-18 14:13:00,
2013-09-18 10:18:00,67.6,61.9,30.18,SW,225,2.9,2.9,82,0.00,OVC,,0.00,WeatherDisplay:10.37,2013-09-18 14:18:00,
2013-09-18 10:23:00,68.0,62.3,30.18,SW,225,3.3,3.3,82,0.00,OVC,,0.00,WeatherDisplay:10.37,2013-09-18 14:23:00,
2013-09-18 10:28:00,68.2,62.1,30.18,South,180,3.5,3.5,81,0.00,OVC,,0.00,WeatherDisplay:10.37,2013-09-18 14:28:00,
2013-09-18 10:33:00,68.4,62.3,30.18,SSW,202,3.5,3.5,81,0.00,OVC,,0.00,WeatherDisplay:10.37,2013-09-18 14:33:00,
2013-09-18 10:38:00,68.5,62.5,30.18,SW,225,4.6,4.6,81,0.00,OVC,,0.00,WeatherDisplay:10.37,2013-09-18 14:38:00,
2013-09-18 10:43:00,68.9,62.1,30.18,SW,225,5.8,5.8,79,0.00,OVC,,0.00,WeatherDisplay:10.37,2013-09-18 14:43:00,
2013-09-18 10:48:00,69.1,61.9,30.18,SW,225,5.8,5.8,78,0.00,OVC,,0.00,WeatherDisplay:10.37,2013-09-18 14:48:00,
2013-09-18 10:54:00,69.4,62.6,30.18,SW,225,6.2,6.2,79,0.00,OVC,,0.00,WeatherDisplay:10.37,2013-09-18 14:54:00,
2013-09-18 10:59:00,69.6,62.5,30.18,SSW,202,5.8,5.8,78,0.00,OVC,,0.00,WeatherDisplay:10.37,2013-09-18 14:59:00,
2013-09-18 11:04:00,69.4,61.9,30.18,SSW,202,5.8,5.9,77,0.00,OVC,,0.00,WeatherDisplay:10.37,2013-09-18 15:04:00,
2013-09-18 11:09:00,69.8,62.3,30.18,SW,225,4.9,4.9,77,0.00,OVC,,0.00,WeatherDisplay:10.37,2013-09-18 15:09:00,
2013-09-18 11:14:00,70.0,62.4,30.18,SW,225,5.8,5.8,77,0.00,OVC,,0.00,WeatherDisplay:10.37,2013-09-18 15:14:00,
2013-09-18 11:19:00,69.8,62.3,30.18,WNW,292,4.6,4.7,77,0.00,OVC,,0.00,WeatherDisplay:10.37,2013-09-18 15:19:00,
2013-09-18 11:24:00,69.8,62.3,30.18,WSW,248,3.5,3.5,77,0.00,OVC,,0.00,WeatherDisplay:10.37,2013-09-18 15:24:00,
2013-09-18 11:29:00,69.4,61.9,30.18,WSW,248,5.8,5.8,77,0.00,OVC,,0.00,WeatherDisplay:10.37,2013-09-18 15:29:00,
2013-09-18 11:34:00,69.6,62.1,30.18,SW,225,5.8,5.8,77,0.00,OVC,,0.00,WeatherDisplay:10.37,2013-09-18 15:34:00,
2013-09-18 11:39:00,70.3,62.8,30.18,West,270,5.8,5.8,77,0.00,OVC,,0.00,WeatherDisplay:10.37,2013-09-18 15:39:00,
2013-09-18 11:45:00,70.9,63.3,30.18,West,270,6.9,6.9,77,0.00,OVC,,0.00,WeatherDisplay:10.37,2013-09-18 15:45:00,
2013-09-18 11:50:00,71.1,62.4,30.15,SW,225,7.4,7.4,74,0.00,OVC,,0.00,WeatherDisplay:10.37,2013-09-18 15:50:00,
2013-09-18 11:55:00,70.5,61.8,30.15,SW,225,6.9,6.9,74,0.00,OVC,,0.00,WeatherDisplay:10.37,2013-09-18 15:55:00,
2013-09-18 12:01:00,71.6,62.9,30.15,SW,225,5.8,5.8,74,0.00,OVC,,0.00,WeatherDisplay:10.37,2013-09-18 16:01:00,
2013-09-18 12:06:00,72.0,63.2,30.18,SW,225,6.0,6.0,74,0.00,OVC,,0.00,WeatherDisplay:10.37,2013-09-18 16:06:00,
2013-09-18 12:11:00,71.1,62.4,30.18,SW,225,4.6,4.6,74,0.00,OVC,,0.00,WeatherDisplay:10.37,2013-09-18 16:11:00,
2013-09-18 12:16:00,70.9,62.2,30.18,SW,225,4.6,4.6,74,0.00,OVC,,0.00,WeatherDisplay:10.37,2013-09-18 16:16:00,
2013-09-18 12:21:00,70.9,62.2,30.15,SW,225,4.6,4.6,74,0.00,OVC,,0.00,WeatherDisplay:10.37,2013-09-18 16:21:00,
2013-09-18 12:26:00,72.1,63.4,30.15,South,180,5.8,5.8,74,0.00,OVC,,0.00,WeatherDisplay:10.37,2013-09-18 16:26:00,
2013-09-18 12:31:00,72.0,63.2,30.15,SW,225,5.8,5.8,74,0.00,OVC,,0.00,WeatherDisplay:10.37,2013-09-18 16:31:00,
2013-09-18 12:36:00,71.4,62.7,30.18,WSW,248,7.4,7.4,74,0.00,OVC,,0.00,WeatherDisplay:10.37,2013-09-18 16:36:00,
2013-09-18 12:41:00,71.8,63.0,30.18,WSW,248,5.8,5.8,74,0.00,OVC,,0.00,WeatherDisplay:10.37,2013-09-18 16:41:00,
2013-09-18 12:46:00,71.8,63.0,30.18,SW,225,5.8,5.8,74,0.00,OVC,,0.00,WeatherDisplay:10.37,2013-09-18 16:46:00,
2013-09-18 12:51:00,72.5,63.7,30.18,SW,225,4.9,4.9,74,0.00,OVC,,0.00,WeatherDisplay:10.37,2013-09-18 16:51:00,
2013-09-18 12:56:00,74.3,65.1,30.18,South,180,5.8,5.8,73,0.00,OVC,,0.00,WeatherDisplay:10.37,2013-09-18 16:56:00,
2013-09-18 13:01:00,75.0,65.0,30.18,South,180,4.6,4.6,71,0.00,OVC,,0.00,WeatherDisplay:10.37,2013-09-18 17:01:00,
2013-09-18 13:06:00,75.2,64.7,30.18,WSW,248,4.6,4.6,70,0.00,OVC,,0.00,WeatherDisplay:10.37,2013-09-18 17:06:00,
2013-09-18 13:11:00,75.0,65.0,30.18,South,180,5.6,5.6,71,0.00,OVC,,0.00,WeatherDisplay:10.37,2013-09-18 17:11:00,
2013-09-18 13:16:00,75.7,65.3,30.18,SSW,202,5.8,5.8,70,0.00,OVC,,0.00,WeatherDisplay:10.37,2013-09-18 17:16:00,
2013-09-18 13:22:00,75.0,65.0,30.18,SW,225,4.6,4.6,71,0.00,OVC,,0.00,WeatherDisplay:10.37,2013-09-18 17:22:00,
2013-09-18 13:27:00,74.8,64.8,30.18,South,180,5.8,5.8,71,0.00,OVC,,0.00,WeatherDisplay:10.37,2013-09-18 17:27:00,
2013-09-18 13:32:00,74.3,64.3,30.18,SSW,202,4.6,4.6,71,0.00,OVC,,0.00,WeatherDisplay:10.37,2013-09-18 17:32:00,
2013-09-18 13:37:00,74.8,64.8,30.18,SW,225,9.2,9.2,71,0.00,OVC,,0.00,WeatherDisplay:10.37,2013-09-18 17:37:00,
2013-09-18 13:42:00,73.9,63.9,30.18,South,180,3.5,3.5,71,0.00,OVC,,0.00,WeatherDisplay:10.37,2013-09-18 17:42:00,
2013-09-18 13:47:00,73.8,63.8,30.15,South,180,5.9,5.9,71,0.00,OVC,,0.00,WeatherDisplay:10.37,2013-09-18 17:47:00,
2013-09-18 13:52:00,74.5,64.5,30.15,SW,225,4.6,4.6,71,0.00,OVC,,0.00,WeatherDisplay:10.37,2013-09-18 17:52:00,
2013-09-18 13:57:00,74.3,64.3,30.15,SSW,202,3.8,3.8,71,0.00,OVC,,0.00,WeatherDisplay:10.37,2013-09-18 17:57:00,
2013-09-18 14:02:00,74.3,64.3,30.15,South,180,3.5,3.5,71,0.00,BKN,,0.00,WeatherDisplay:10.37,2013-09-18 18:02:00,
2013-09-18 14:07:00,75.2,64.7,30.15,SSW,202,4.6,4.6,70,0.00,BKN,,0.00,WeatherDisplay:10.37,2013-09-18 18:07:00,
2013-09-18 14:12:00,76.1,65.6,30.15,West,270,3.5,3.5,70,0.00,BKN,,0.00,WeatherDisplay:10.37,2013-09-18 18:12:00,
2013-09-18 14:17:00,76.8,66.3,30.15,WSW,248,2.4,2.4,70,0.00,BKN,,0.00,WeatherDisplay:10.37,2013-09-18 18:17:00,
2013-09-18 14:22:00,76.5,65.9,30.15,SSW,202,4.6,4.6,70,0.00,BKN,,0.00,WeatherDisplay:10.37,2013-09-18 18:22:00,
2013-09-18 14:27:00,76.3,65.8,30.15,West,270,3.5,3.5,70,0.00,BKN,,0.00,WeatherDisplay:10.37,2013-09-18 18:27:00,
2013-09-18 14:32:00,76.1,65.6,30.15,SW,225,3.6,3.6,70,0.00,OVC,,0.00,WeatherDisplay:10.37,2013-09-18 18:32:00,
2013-09-18 14:37:00,75.6,65.1,30.15,South,180,3.8,3.8,70,0.00,OVC,,0.00,WeatherDisplay:10.37,2013-09-18 18:37:00,
2013-09-18 14:42:00,74.5,64.5,30.15,SW,225,5.8,5.8,71,0.00,OVC,,0.00,WeatherDisplay:10.37,2013-09-18 18:42:00,
2013-09-18 14:48:00,74.8,64.8,30.15,SW,225,3.0,0.0,71,0.00,OVC,OVC,0.00,WeatherDisplay:10.37,2013-09-18 18:48:00,
2013-09-18 14:53:00,74.5,64.5,30.15,WSW,248,3.5,3.5,71,0.00,OVC,,0.00,WeatherDisplay:10.37,2013-09-18 18:53:00,
2013-09-18 14:58:00,75.0,65.0,30.15,SW,225,4.6,4.6,71,0.00,OVC,,0.00,WeatherDisplay:10.37,2013-09-18 18:58:00,
2013-09-18 15:03:00,75.6,65.1,30.15,SW,225,4.6,4.6,70,0.00,OVC,,0.00,WeatherDisplay:10.37,2013-09-18 19:03:00,
2013-09-18 15:08:00,76.6,66.1,30.15,South,180,4.3,4.3,70,0.00,OVC,,0.00,WeatherDisplay:10.37,2013-09-18 19:08:00,
2013-09-18 15:13:00,76.6,66.1,30.15,South,180,4.6,4.6,70,0.00,OVC,,0.00,WeatherDisplay:10.37,2013-09-18 19:13:00,
2013-09-18 15:18:00,77.2,66.6,30.15,WSW,248,4.6,4.6,70,0.00,OVC,,0.00,WeatherDisplay:10.37,2013-09-18 19:18:00,
2013-09-18 15:23:00,76.8,66.3,30.15,SW,225,4.6,4.6,70,0.00,OVC,,0.00,WeatherDisplay:10.37,2013-09-18 19:23:00,
2013-09-18 15:28:00,77.4,66.8,30.15,SW,225,5.8,5.8,70,0.00,OVC,,0.00,WeatherDisplay:10.37,2013-09-18 19:28:00,
2013-09-18 15:34:00,78.4,67.8,30.12,South,180,4.6,4.6,70,0.00,SCT,,0.00,WeatherDisplay:10.37,2013-09-18 19:34:00,
2013-09-18 15:39:00,77.0,66.5,30.12,WSW,248,4.6,4.6,70,0.00,SCT,,0.00,WeatherDisplay:10.37,2013-09-18 19:39:00,
2013-09-18 15:44:00,78.1,67.5,30.12,SSW,202,4.6,4.6,70,0.00,SCT,,0.00,WeatherDisplay:10.37,2013-09-18 19:44:00,
2013-09-18 15:49:00,78.1,67.5,30.12,SW,225,3.5,3.5,70,0.00,OVC,,0.00,WeatherDisplay:10.37,2013-09-18 19:49:00,
2013-09-18 15:54:00,77.2,66.6,30.12,SW,225,3.5,3.5,70,0.00,OVC,,0.00,WeatherDisplay:10.37,2013-09-18 19:54:00,
2013-09-18 15:59:00,77.9,67.3,30.12,SW,225,4.6,4.6,70,0.00,OVC,,0.00,WeatherDisplay:10.37,2013-09-18 19:59:00,
2013-09-18 16:04:00,77.5,67.0,30.12,South,180,3.5,3.5,70,0.00,OVC,,0.00,WeatherDisplay:10.37,2013-09-18 20:04:00,
2013-09-18 16:09:00,77.4,66.8,30.12,SW,225,3.5,3.5,70,0.00,OVC,,0.00,WeatherDisplay:10.37,2013-09-18 20:09:00,
2013-09-18 16:14:00,77.0,66.5,30.12,WSW,248,4.0,4.0,70,0.00,OVC,,0.00,WeatherDisplay:10.37,2013-09-18 20:14:00,
2013-09-18 16:19:00,77.9,67.3,30.12,SW,225,4.6,4.6,70,0.00,BKN,,0.00,WeatherDisplay:10.37,2013-09-18 20:19:00,
2013-09-18 16:24:00,78.3,67.7,30.12,SW,225,3.5,3.5,70,0.00,BKN,,0.00,WeatherDisplay:10.37,2013-09-18 20:24:00,
2013-09-18 16:30:00,78.4,67.8,30.12,East,90,5.8,5.8,70,0.00,BKN,,0.00,WeatherDisplay:10.37,2013-09-18 20:30:00,
2013-09-18 16:35:00,79.0,68.4,30.12,SE,135,2.3,0.0,70,0.00,BKN,,0.00,WeatherDisplay:10.37,2013-09-18 20:35:00,
2013-09-18 16:40:00,78.6,68.0,30.12,West,270,4.6,4.6,70,0.00,BKN,,0.00,WeatherDisplay:10.37,2013-09-18 20:40:00,
2013-09-18 16:45:00,78.3,67.7,30.12,SW,225,4.6,4.6,70,0.00,BKN,,0.00,WeatherDisplay:10.37,2013-09-18 20:45:00,
2013-09-18 16:50:00,78.4,67.8,30.09,SW,225,3.5,3.5,70,0.00,BKN,,0.00,WeatherDisplay:10.37,2013-09-18 20:50:00,
2013-09-18 16:56:00,78.3,67.7,30.09,South,180,2.6,2.6,70,0.00,BKN,,0.00,WeatherDisplay:10.37,2013-09-18 20:56:00,
2013-09-18 17:01:00,78.4,67.8,30.09,South,180,2.3,2.3,70,0.00,BKN,,0.00,WeatherDisplay:10.37,2013-09-18 21:01:00,
2013-09-18 17:06:00,79.2,68.5,30.12,South,180,4.6,4.6,70,0.00,BKN,,0.00,WeatherDisplay:10.37,2013-09-18 21:06:00,
2013-09-18 17:11:00,79.7,69.0,30.12,South,180,4.6,4.6,70,0.00,BKN,,0.00,WeatherDisplay:10.37,2013-09-18 21:11:00,
2013-09-18 17:16:00,80.2,69.6,30.12,SE,135,3.5,3.5,70,0.00,BKN,,0.00,WeatherDisplay:10.37,2013-09-18 21:16:00,
2013-09-18 17:21:00,81.1,70.0,30.12,South,180,4.7,4.7,69,0.00,BKN,,0.00,WeatherDisplay:10.37,2013-09-18 21:21:00,
2013-09-18 17:26:00,79.3,68.7,30.12,SSW,202,4.6,4.6,70,0.00,BKN,,0.00,WeatherDisplay:10.37,2013-09-18 21:26:00,
2013-09-18 17:31:00,79.2,68.5,30.12,SW,225,3.5,3.5,70,0.00,BKN,,0.00,WeatherDisplay:10.37,2013-09-18 21:31:00,
2013-09-18 17:36:00,78.1,67.5,30.09,South,180,3.1,3.1,70,0.00,BKN,,0.00,WeatherDisplay:10.37,2013-09-18 21:36:00,
2013-09-18 17:41:00,78.3,67.7,30.09,South,180,2.3,2.3,70,0.00,BKN,,0.00,WeatherDisplay:10.37,2013-09-18 21:41:00,
2013-09-18 17:46:00,78.3,67.7,30.09,West,270,2.3,2.3,70,0.00,BKN,,0.00,WeatherDisplay:10.37,2013-09-18 21:46:00,
2013-09-18 17:52:00,78.8,68.2,30.12,SSW,202,4.6,4.6,70,0.00,BKN,,0.00,WeatherDisplay:10.37,2013-09-18 21:52:00,
2013-09-18 17:57:00,79.2,68.5,30.12,South,180,3.5,3.5,70,0.00,BKN,,0.00,WeatherDisplay:10.37,2013-09-18 21:57:00,
2013-09-18 18:02:00,79.0,68.4,30.12,South,180,5.8,5.8,70,0.00,BKN,,0.00,WeatherDisplay:10.37,2013-09-18 22:02:00,
2013-09-18 18:07:00,78.3,67.7,30.12,SW,225,3.6,3.6,70,0.00,BKN,,0.00,WeatherDisplay:10.37,2013-09-18 22:07:00,
2013-09-18 18:12:00,77.5,67.0,30.12,South,180,3.5,3.5,70,0.00,BKN,,0.00,WeatherDisplay:10.37,2013-09-18 22:12:00,
2013-09-18 18:17:00,77.2,66.6,30.12,SSE,158,4.6,4.6,70,0.00,BKN,,0.00,WeatherDisplay:10.37,2013-09-18 22:17:00,
2013-09-18 18:18:00,67.6,38.3,30.15,SE,135,0.0,0.0,34,0.00,CLR,CLR,0.00,WeatherDisplay:10.37,2013-09-18 22:18:00,
2013-09-18 18:22:00,76.5,65.9,30.12,South,180,3.5,3.5,70,0.00,BKN,,0.00,WeatherDisplay:10.37,2013-09-18 22:22:00,
2013-09-18 18:27:00,77.0,66.5,30.12,SE,135,2.6,2.6,70,0.00,BKN,,0.00,WeatherDisplay:10.37,2013-09-18 22:27:00,
2013-09-18 18:32:00,77.0,66.5,30.12,South,180,2.3,2.3,70,0.00,BKN,,0.00,WeatherDisplay:10.37,2013-09-18 22:32:00,
2013-09-18 18:33:00,67.3,37.9,30.15,SE,135,0.0,0.0,34,0.00,CLR,CLR,0.00,WeatherDisplay:10.37,2013-09-18 22:33:00,
2013-09-18 18:37:00,77.2,66.6,30.12,East,90,0.0,0.0,70,0.00,BKN,,0.00,WeatherDisplay:10.37,2013-09-18 22:37:00,
2013-09-18 18:42:00,77.2,66.6,30.12,East,90,0.0,0.0,70,0.00,BKN,,0.00,WeatherDisplay:10.37,2013-09-18 22:42:00,
2013-09-18 18:47:00,77.4,66.8,30.12,South,180,2.3,2.3,70,0.00,BKN,,0.00,WeatherDisplay:10.37,2013-09-18 22:47:00,
2013-09-18 18:48:00,66.9,37.6,30.15,SE,135,0.0,0.0,34,0.00,CLR,CLR,0.00,WeatherDisplay:10.37,2013-09-18 22:48:00,
2013-09-18 18:52:00,77.0,66.5,30.12,SW,225,2.3,2.3,70,0.00,BKN,,0.00,WeatherDisplay:10.37,2013-09-18 22:52:00,
2013-09-18 18:57:00,76.5,65.9,30.12,SW,225,2.9,2.9,70,0.00,BKN,,0.00,WeatherDisplay:10.37,2013-09-18 22:57:00,
2013-09-18 19:02:00,75.9,65.4,30.12,SW,225,4.6,4.6,70,0.00,BKN,,0.00,WeatherDisplay:10.37,2013-09-18 23:02:00,
2013-09-18 19:03:00,66.7,38.2,30.15,SE,135,0.0,0.0,35,0.00,CLR,CLR,0.00,WeatherDisplay:10.37,2013-09-18 23:03:00,
2013-09-18 19:07:00,75.4,64.9,30.12,South,180,3.5,3.5,70,0.00,BKN,,0.00,WeatherDisplay:10.37,2013-09-18 23:07:00,
2013-09-18 19:12:00,75.0,65.0,30.12,South,180,2.3,2.3,71,0.00,BKN,,0.00,WeatherDisplay:10.37,2013-09-18 23:12:00,
2013-09-18 19:17:00,74.7,64.6,30.09,South,180,1.6,0.0,71,0.00,BKN,,0.00,WeatherDisplay:10.37,2013-09-18 23:17:00,
2013-09-18 19:18:00,66.6,38.8,30.15,ESE,110,0.0,0.0,36,0.00,CLR,CLR,0.00,WeatherDisplay:10.37,2013-09-18 23:18:00,
2013-09-18 19:22:00,74.5,64.5,30.09,South,180,0.0,0.9,71,0.00,BKN,,0.00,WeatherDisplay:10.37,2013-09-18 23:22:00,
2013-09-18 19:27:00,74.3,64.3,30.09,East,90,0.0,0.0,71,0.00,BKN,,0.00,WeatherDisplay:10.37,2013-09-18 23:27:00,
2013-09-18 19:32:00,73.9,63.9,30.12,East,90,0.0,0.0,71,0.00,BKN,,0.00,WeatherDisplay:10.37,2013-09-18 23:32:00,
2013-09-18 19:33:00,66.4,39.3,30.15,NE,45,0.0,0.0,37,0.00,CLR,CLR,0.00,WeatherDisplay:10.37,2013-09-18 23:33:00,
2013-09-18 19:37:00,73.8,63.8,30.12,East,90,0.0,0.0,71,0.00,BKN,,0.00,WeatherDisplay:10.37,2013-09-18 23:37:00,
2013-09-18 19:43:00,73.2,64.4,30.12,SE,135,0.0,0.0,74,0.00,BKN,,0.00,WeatherDisplay:10.37,2013-09-18 23:43:00,
2013-09-18 19:48:00,72.9,64.1,30.12,East,90,1.2,0.0,74,0.00,BKN,,0.00,WeatherDisplay:10.37,2013-09-18 23:48:00,
2013-09-18 19:53:00,72.5,63.7,30.12,East,90,0.0,0.0,74,0.00,BKN,,0.00,WeatherDisplay:10.37,2013-09-18 23:53:00,
2013-09-18 19:58:00,72.3,63.6,30.12,East,90,0.0,0.0,74,0.00,BKN,,0.00,WeatherDisplay:10.37,2013-09-18 23:58:00,
2013-09-18 20:03:00,72.0,63.2,30.12,NE,45,0.0,0.0,74,0.00,BKN,,0.00,WeatherDisplay:10.37,2013-09-19 00:03:00,
2013-09-18 20:08:00,71.6,62.9,30.12,NE,45,0.0,0.0,74,0.00,BKN,,0.00,WeatherDisplay:10.37,2013-09-19 00:08:00,
2013-09-18 20:13:00,71.4,63.8,30.12,NE,45,0.0,0.0,77,0.00,BKN,,0.00,WeatherDisplay:10.37,2013-09-19 00:13:00,
2013-09-18 20:18:00,71.1,63.5,30.12,NE,45,0.0,0.0,77,0.00,BKN,,0.00,WeatherDisplay:10.37,2013-09-19 00:18:00,
2013-09-18 20:23:00,70.9,63.3,30.12,NE,45,0.0,0.0,77,0.00,BKN,,0.00,WeatherDisplay:10.37,2013-09-19 00:23:00,
2013-09-18 20:28:00,70.5,63.3,30.12,NE,45,0.0,0.0,78,0.00,BKN,,0.00,WeatherDisplay:10.37,2013-09-19 00:28:00,
2013-09-18 20:33:00,70.3,63.2,30.12,NE,45,0.0,0.0,78,0.00,BKN,,0.00,WeatherDisplay:10.37,2013-09-19 00:33:00,
2013-09-18 20:38:00,70.2,63.0,30.12,East,90,0.0,0.0,78,0.00,BKN,,0.00,WeatherDisplay:10.37,2013-09-19 00:38:00,
2013-09-18 20:43:00,70.0,62.8,30.12,East,90,0.0,0.0,78,0.00,BKN,,0.00,WeatherDisplay:10.37,2013-09-19 00:43:00,
2013-09-18 20:48:00,69.8,63.0,30.12,East,90,0.0,0.0,79,0.00,BKN,,0.00,WeatherDisplay:10.37,2013-09-19 00:48:00,
2013-09-18 20:54:00,69.8,63.3,30.12,SE,135,0.0,0.0,80,0.00,BKN,,0.00,WeatherDisplay:10.37,2013-09-19 00:54:00,
2013-09-18 20:59:00,69.6,63.5,30.12,SE,135,0.0,0.0,81,0.00,BKN,,0.00,WeatherDisplay:10.37,2013-09-19 00:59:00,
2013-09-18 21:03:00,65.8,43.3,30.12,SW,218,1.0,2.0,44,0.00,CLR,CLR,0.00,WeatherDisplay:10.37,2013-09-19 01:03:00,
2013-09-18 21:04:00,69.6,63.5,30.12,South,180,0.0,0.0,81,0.00,BKN,,0.00,WeatherDisplay:10.37,2013-09-19 01:04:00,
2013-09-18 21:09:00,69.4,63.4,30.12,South,180,0.0,0.0,81,0.00,BKN,,0.00,WeatherDisplay:10.37,2013-09-19 01:09:00,
2013-09-18 21:14:00,69.3,63.2,30.12,South,180,0.9,0.0,81,0.00,BKN,,0.00,WeatherDisplay:10.37,2013-09-19 01:14:00,
2013-09-18 21:18:00,65.8,43.3,30.15,South,184,1.0,2.0,44,0.00,CLR,CLR,0.00,WeatherDisplay:10.37,2013-09-19 01:18:00,
2013-09-18 21:19:00,69.3,63.2,30.12,SE,135,1.4,0.0,81,0.00,SCT,,0.00,WeatherDisplay:10.37,2013-09-19 01:19:00,
2013-09-18 21:24:00,69.3,63.2,30.12,South,180,2.3,2.3,81,0.00,SCT,,0.00,WeatherDisplay:10.37,2013-09-19 01:24:00,
2013-09-18 21:29:00,69.3,63.5,30.12,South,180,1.2,0.0,82,0.00,SCT,,0.00,WeatherDisplay:10.37,2013-09-19 01:29:00,
2013-09-18 21:33:00,65.8,43.3,30.15,South,188,1.0,3.0,44,0.00,CLR,CLR,0.00,WeatherDisplay:10.37,2013-09-19 01:33:00,
2013-09-18 21:34:00,69.1,63.7,30.15,South,180,0.0,0.0,83,0.00,SCT,,0.00,WeatherDisplay:10.37,2013-09-19 01:34:00,
2013-09-18 21:39:00,68.9,63.5,30.15,South,180,1.2,0.0,83,0.00,SCT,,0.00,WeatherDisplay:10.37,2013-09-19 01:39:00,
2013-09-18 21:44:00,68.9,63.9,30.15,SE,135,1.4,1.4,84,0.00,SCT,,0.00,WeatherDisplay:10.37,2013-09-19 01:44:00,
2013-09-18 21:48:00,65.8,43.3,30.15,South,187,1.0,3.0,44,0.00,CLR,CLR,0.00,WeatherDisplay:10.37,2013-09-19 01:48:00,
2013-09-18 21:49:00,68.9,63.9,30.15,NE,45,1.2,0.0,84,0.00,SCT,,0.00,WeatherDisplay:10.37,2013-09-19 01:49:00,
2013-09-18 21:54:00,68.9,63.9,30.15,East,90,1.2,0.0,84,0.00,SCT,,0.00,WeatherDisplay:10.37,2013-09-19 01:54:00,
2013-09-18 21:59:00,68.9,64.2,30.15,SE,135,2.3,0.0,85,0.00,SCT,,0.00,WeatherDisplay:10.37,2013-09-19 01:59:00,
2013-09-18 22:03:00,65.7,43.7,30.12,SSW,202,0.0,2.0,45,0.00,CLR,CLR,0.00,WeatherDisplay:10.37,2013-09-19 02:03:00,
2013-09-18 22:04:00,68.7,64.0,30.15,SE,135,0.0,0.0,85,0.00,SCT,,0.00,WeatherDisplay:10.37,2013-09-19 02:04:00,
2013-09-18 22:09:00,68.7,64.4,30.15,East,90,0.9,0.0,86,0.00,SCT,,0.00,WeatherDisplay:10.37,2013-09-19 02:09:00,
2013-09-18 22:14:00,68.5,64.5,30.15,East,90,1.2,0.0,87,0.00,SCT,,0.00,WeatherDisplay:10.37,2013-09-19 02:14:00,
2013-09-18 22:18:00,65.3,43.4,30.15,SSW,202,0.0,1.0,45,0.00,CLR,CLR,0.00,WeatherDisplay:10.37,2013-09-19 02:18:00,
2013-09-18 22:19:00,68.5,64.5,30.15,East,90,1.2,0.0,87,0.00,SCT,,0.00,WeatherDisplay:10.37,2013-09-19 02:19:00,
2013-09-18 22:24:00,68.4,64.3,30.15,East,90,1.2,0.0,87,0.00,SCT,,0.00,WeatherDisplay:10.37,2013-09-19 02:24:00,
2013-09-18 22:29:00,68.5,64.8,30.15,SE,135,1.2,0.0,88,0.00,SCT,,0.00,WeatherDisplay:10.37,2013-09-19 02:29:00,
2013-09-18 22:33:00,65.3,44.0,30.15,SSW,202,1.0,1.0,46,0.00,CLR,CLR,0.00,WeatherDisplay:10.37,2013-09-19 02:33:00,
2013-09-18 22:34:00,68.4,64.3,30.15,SE,135,2.3,0.0,87,0.00,SCT,,0.00,WeatherDisplay:10.37,2013-09-19 02:34:00,
2013-09-18 22:39:00,68.4,64.7,30.15,SE,135,1.4,1.4,88,0.00,SCT,,0.00,WeatherDisplay:10.37,2013-09-19 02:39:00,
2013-09-18 22:44:00,68.2,64.2,30.15,SE,135,1.2,0.0,87,0.00,SCT,,0.00,WeatherDisplay:10.37,2013-09-19 02:44:00,
2013-09-18 22:48:00,65.5,45.8,30.15,South,189,1.0,2.0,49,0.00,CLR,CLR,0.00,WeatherDisplay:10.37,2013-09-19 02:48:00,
2013-09-18 22:50:00,68.2,64.5,30.15,SE,135,0.0,0.0,88,0.00,SCT,,0.00,WeatherDisplay:10.37,2013-09-19 02:50:00,
2013-09-18 22:55:00,68.0,64.3,30.15,SE,135,0.0,0.0,88,0.00,SCT,,0.00,WeatherDisplay:10.37,2013-09-19 02:55:00,
2013-09-18 23:00:00,68.0,64.3,30.15,NW,315,0.0,0.0,88,0.00,SCT,,0.00,WeatherDisplay:10.37,2013-09-19 03:00:00,
2013-09-18 23:03:00,65.5,45.8,30.15,South,188,1.0,3.0,49,0.00,CLR,CLR,0.00,WeatherDisplay:10.37,2013-09-19 03:03:00,
2013-09-18 23:05:00,67.8,64.1,30.15,SE,135,0.0,0.0,88,0.00,SCT,,0.00,WeatherDisplay:10.37,2013-09-19 03:05:00,
2013-09-18 23:10:00,67.6,64.0,30.15,SE,135,0.0,0.0,88,0.00,SCT,,0.00,WeatherDisplay:10.37,2013-09-19 03:10:00,
2013-09-18 23:18:00,65.5,45.8,30.12,South,178,1.0,3.0,49,0.00,CLR,CLR,0.00,WeatherDisplay:10.37,2013-09-19 03:18:00,
2013-09-18 23:33:00,65.3,44.5,30.15,SSE,165,1.0,2.0,47,0.00,CLR,CLR,0.00,WeatherDisplay:10.37,2013-09-19 03:33:00,
2013-09-18 23:48:00,65.3,46.7,30.15,SSW,201,1.0,4.0,51,0.00,CLR,CLR,0.00,WeatherDisplay:10.37,2013-09-19 03:48:00,